Regional Weather Roundup
Issued by NWS

Home | Current Version | Previous Version | Text Only | Print | Product List | Glossary On
Versions: 1 2 3 4 5 6 7 8 9 10 11 12 13 14 15 16 17 18 19 20 21 22 23 24 25 26 27 28 29 30 31 32 33 34 35 36 37 38 39 40 41 42 43 44 45 46 47 48 49 50
000
ASUS44 KFWD 270715
RWRTX
NORTH TEXAS HOURLY WEATHER ROUNDUP
NATIONAL WEATHER SERVICE FORT WORTH TX
200 AM CDT THU APR 27 2017

NOTE: "FAIR" INDICATES FEW OR NO CLOUDS BELOW 12,000 FEET WITH NO
SIGNIFICANT WEATHER AND/OR OBSTRUCTIONS TO VISIBILITY.

TXZ118-119-270800-
DALLAS/FORT WORTH METROPLEX

CITY           SKY/WX    TMP DP  RH WIND       PRES   REMARKS
DFW AIRPORT    CLEAR     52  47  83 S5        29.77F
DALLAS LOVE    PTCLDY    54  46  74 S5        29.79F
FTW MEACHAM    CLEAR     52  46  80 CALM      29.79S
DAL-EXECUTIVE  CLEAR     49  46  90 S3        29.79F
FTW-ALLIANCE   CLEAR     42  42 100 CALM      29.78F
FTW-NAS-JRB    CLEAR     51  45  79 S3        29.80S
FTW-SPINKS     CLEAR     45  44  96 CALM      29.81F
ARLINGTON      CLEAR     46  44  93 S3        29.80S
GRAND PRAIRIE  CLEAR     51  46  82 CALM      29.81S
ADDISON        CLEAR     50  44  80 CALM      29.81S
MESQUITE       CLEAR     45  44  99 CALM      29.81S
LANCASTER      CLEAR     44  43  96 CALM      29.82S
$$

TXZ091>094-102>105-117-120-121-131>134-270800-
NORTH CENTRAL TEXAS

CITY           SKY/WX    TMP DP  RH WIND       PRES   REMARKS
SHRMAN/DENISON CLEAR     45  43  92 CALM      29.80S
GAINESVILLE    CLEAR     43  42  93 CALM      29.81S
BOWIE          CLEAR     43  43 100 CALM      29.78F
BRIDGEPORT     CLEAR     41  41 100 CALM      29.79F
DECATUR        CLEAR     51  41  69 CALM      29.78F
DENTON         CLEAR     43  42  97 N3        29.78F
MCKINNEY       CLEAR     45  45 100 CALM      29.80S
BONHAM         CLEAR     43  43 100 SW3       29.80S
GREENVILLE     CLEAR     46  45  93 CALM      29.80F
ROCKWALL       CLEAR     49  47  92 SW6       29.80S
TERRELL        CLEAR     48  45  89 CALM      29.80F
WAXAHACHIE     CLEAR     47  47 100 CALM      29.81F
CLEBURNE       CLEAR     48  48 100 SE5       29.81F
GRANBURY       CLEAR     46  43  90 CALM      29.80F
$$

TXZ083>090-098>101-113>116-127>130-139>142-154-155-270800-
WESTERN NORTH TEXAS

CITY           SKY/WX    TMP DP  RH WIND       PRES   REMARKS
WICHITA FALLS  CLEAR     47  39  74 CALM      29.76F
VERNON         PTCLDY    49  39  68 CALM      29.78S
ABILENE        CLEAR     48  40  73 SE7       29.75F
ABILENE-DYESS  PTCLDY    46  38  74 SW3       29.74F
GRAHAM         CLEAR     42  42 100 CALM      29.76F
BRECKENRIDGE   CLEAR     47  41  78 E8        29.75F
CISCO          CLEAR     45  41  87 SE7       29.76F
RANGER         CLEAR     44  42  91 E3        29.78F
MINERAL WELLS  CLEAR     46  42  86 CALM      29.78F
STEPHENVILLE   CLEAR     46  43  88 CALM      29.82S
COMANCHE       CLEAR     46  46 100 S5        29.78F
BROWNWOOD      CLEAR     45  41  87 CALM      29.76F
COLEMAN        CLOUDY    46  40  80 CALM      29.76F
$$

TXZ143>147-156>162-174-175-270800-
CENTRAL TEXAS

CITY           SKY/WX    TMP DP  RH WIND       PRES   REMARKS
WACO           CLEAR     47  45  93 CALM      29.80F
WACO-MCGREGOR  CLEAR     48  45  89 CALM      29.80F
HILLSBORO      CLEAR     47  45  91 CALM      29.80F
CORSICANA      CLEAR     50  47  89 CALM      29.81F
MEXIA          CLEAR     48  46  92 CALM      29.79F
HEARNE         CLEAR     53  48  82 CALM      29.79F
CAMERON        CLEAR     54  48  80 NE3       29.79F
TEMPLE         CLEAR     51  46  83 N7        29.80F
KILLEEN        CLEAR     54  45  73 NE7       29.78S
KILLEEN-SKYLRK CLEAR     52  45  77 NE6       29.79F
FORT HOOD      CLEAR     55  45  70 NE6       29.76F
GATESVILLE     CLEAR     50  45  81 CALM      29.81F
HAMILTON       CLEAR     51  44  75 E5        29.80F
LAMPASAS       CLEAR     50  47  90 NE3       29.76F
$$

TXZ095>097-106>112-122>126-135>138-148>153-164>167-270800-
EAST TEXAS

CITY           SKY/WX    TMP DP  RH WIND       PRES   REMARKS
PARIS          CLEAR     46  45  93 CALM      29.79F
SULPHUR SPRNGS CLEAR     48  47  95 CALM      29.81F
MOUNT PLEASANT CLEAR     49  48  99 CALM      29.81F
GILMER         CLEAR     48  47  95 CALM      29.80F
MINEOLA        CLEAR     46  46 100 CALM      29.79F
TYLER          CLEAR     50  48  93 CALM      29.80F
LONGVIEW       CLEAR     50  48  93 CALM      29.79F
MARSHALL       CLEAR     50  47  88 NW3       29.81F
ATHENS         CLEAR     45  45 100 CALM      29.79F
PALESTINE      CLEAR     48  48  99 CALM      29.82F FOG
JACKSONVILLE   CLEAR     52  49  89 NW3       29.82F
HENDERSON      CLEAR     51  47  86 CALM      29.81F
CENTER         SUNNY     56  51  82 CALM      29.81S
NACOGDOCHES    CLEAR     41  41 100 N5        29.78F WCI  38
LUFKIN         CLEAR     52  48  86 CALM      29.80S
$$

SUPPLEMENTAL OBSERVATIONS (CENTRAL)

CITY           SKY/WX    TMP DP  RH WIND       PRES   REMARKS
DENISON DAM      N/A     48  43  81 SW9         N/A
PAT MAYSE LAKE   N/A     50  48  93 SE3         N/A
ATHENS           N/A     46  43  87 NW1         N/A
MCGREGOR         N/A     48  43  81 NE2         N/A
TEMPLE           N/A     54  46  76 NE8         N/A
$$

SUPPLEMENTAL OBSERVATIONS (WEST)

CITY           SKY/WX    TMP DP  RH WIND       PRES   REMARKS
MILLERS CREEK    N/A     54  41  62 SE6         N/A
POSSUM KINGDOM   N/A     48  41  76 S7          N/A
GRANBURY         N/A     45  39  81 CALM        N/A
HAMBY            N/A     48  39  71 E3          N/A
IVIE RESERVOIR   N/A     48  39  71 S3          N/A
COLORADO BEND    N/A     50  43  76 S2          N/A
$$

SUPPLEMENTAL OBSERVATIONS (EAST)

CITY           SKY/WX    TMP DP  RH WIND       PRES   REMARKS
CLARKSVILLE      N/A     46  45  93 CALM        N/A
TEXARKANA        N/A     48  46  93 W1          N/A
LINDEN           N/A     48  43  81 CALM        N/A
CADDO LAKE       N/A     48  46  93 SW1         N/A
GILMER           N/A     48  45  87 S1          N/A
HENDERSON        N/A     52  48  87 N3          N/A
S SABINE NF      N/A     55  48  76 NW3         N/A
$$

SUPPLEMENTAL OBSERVATIONS ARE A COLLECTION OF AUTOMATED INSTRUMENTS
THAT ARE MAINTAINED BY A VARIETY OF FEDERAL AND STATE AGENCIES.
CERTAIN ELEMENTS...SUCH AS HUMIDITY VALUES AND SUSTAINED WIND
SPEEDS...MAY BE APPROXIMATED.





USA.gov is the U.S. government's official web portal to all federal, state and local government web resources and services.